Year,Month,Day,Hour,Minute,Value (Times are PST for temperature in C)
2012,02,25,10,40,5.00
2012,02,25,10,41,5.00
2012,02,25,10,42,5.00
2012,02,25,10,43,4.90
2012,02,25,10,44,4.90
2012,02,25,10,45,5.00
2012,02,25,10,46,5.00
2012,02,25,10,47,5.00
2012,02,25,10,48,5.00
2012,02,25,10,49,5.00
2012,02,25,10,50,5.00
2012,02,25,10,51,5.10
2012,02,25,10,52,5.10
2012,02,25,10,53,5.10
2012,02,25,10,54,5.10
2012,02,25,10,55,5.10
2012,02,25,10,56,5.10
2012,02,25,10,57,5.10
2012,02,25,10,58,5.10
2012,02,25,10,59,5.10
2012,02,25,11,00,5.10
2012,02,25,11,01,5.10
2012,02,25,11,02,5.20
2012,02,25,11,03,5.20
2012,02,25,11,04,5.20
2012,02,25,11,05,5.20
2012,02,25,11,06,5.20
2012,02,25,11,07,5.20
2012,02,25,11,08,5.20
2012,02,25,11,09,5.20
2012,02,25,11,10,5.20
2012,02,25,11,11,5.20
2012,02,25,11,12,5.20
2012,02,25,11,13,5.10
2012,02,25,11,14,5.20
2012,02,25,11,15,5.20
2012,02,25,11,16,5.30
2012,02,25,11,17,5.30
2012,02,25,11,18,5.40
2012,02,25,11,19,5.40
2012,02,25,11,20,5.40
2012,02,25,11,21,5.50
2012,02,25,11,22,5.50
2012,02,25,11,23,5.60
2012,02,25,11,24,5.60
2012,02,25,11,25,5.60
2012,02,25,11,26,5.60
2012,02,25,11,27,5.60
2012,02,25,11,28,5.60
2012,02,25,11,29,5.60
2012,02,25,11,30,5.60
2012,02,25,11,31,5.50
2012,02,25,11,32,5.50
2012,02,25,11,33,5.50
2012,02,25,11,34,5.50
2012,02,25,11,35,5.50
2012,02,25,11,36,5.60
2012,02,25,11,37,5.60
2012,02,25,11,38,5.60
2012,02,25,11,39,5.70
2012,02,25,11,40,5.70
2012,02,25,11,41,5.70
2012,02,25,11,42,5.80
2012,02,25,11,43,5.80
2012,02,25,11,44,5.80
2012,02,25,11,45,5.80
2012,02,25,11,46,5.80
2012,02,25,11,47,5.80
2012,02,25,11,48,5.80
2012,02,25,11,49,5.80
2012,02,25,11,50,5.80
2012,02,25,11,51,5.80
2012,02,25,11,52,5.80
2012,02,25,11,53,5.80
2012,02,25,11,54,5.80
2012,02,25,11,55,5.80
2012,02,25,11,56,5.80
2012,02,25,11,57,5.80
2012,02,25,11,58,5.80
2012,02,25,11,59,5.80
2012,02,25,12,00,5.80
2012,02,25,12,01,5.80
2012,02,25,12,02,5.80
2012,02,25,12,03,5.80
2012,02,25,12,04,5.80
2012,02,25,12,05,5.80
2012,02,25,12,06,5.70
2012,02,25,12,07,5.70
2012,02,25,12,08,5.70
2012,02,25,12,09,5.80
2012,02,25,12,10,5.80
2012,02,25,12,11,5.70
2012,02,25,12,12,5.70
2012,02,25,12,13,5.60
2012,02,25,12,14,5.60
2012,02,25,12,15,5.60
2012,02,25,12,16,5.50
2012,02,25,12,17,5.50
2012,02,25,12,18,5.50
2012,02,25,12,19,5.50
2012,02,25,12,20,5.50
2012,02,25,12,21,5.50
2012,02,25,12,22,5.40
2012,02,25,12,23,5.40
2012,02,25,12,24,5.40
2012,02,25,12,25,5.40
2012,02,25,12,26,5.40
2012,02,25,12,27,5.50
2012,02,25,12,28,5.50
2012,02,25,12,29,5.50
2012,02,25,12,30,5.60
2012,02,25,12,31,5.60
2012,02,25,12,32,5.60
2012,02,25,12,33,5.60
2012,02,25,12,34,5.60
2012,02,25,12,35,5.60
2012,02,25,12,36,5.70
2012,02,25,12,37,5.70
2012,02,25,12,38,5.70
2012,02,25,12,39,5.80
2012,02,25,12,40,5.80
2012,02,25,12,41,5.80
2012,02,25,12,42,5.90
2012,02,25,12,43,5.90
2012,02,25,12,44,5.90
2012,02,25,12,45,5.90
2012,02,25,12,46,5.90
2012,02,25,12,47,6.00
2012,02,25,12,48,6.00
2012,02,25,12,49,6.10
2012,02,25,12,50,6.10
2012,02,25,12,51,6.10
2012,02,25,12,52,6.10
2012,02,25,12,53,6.00
2012,02,25,12,54,6.00
2012,02,25,12,55,6.00
2012,02,25,12,56,6.00
2012,02,25,12,57,6.00
2012,02,25,12,58,6.00
2012,02,25,12,59,6.00
2012,02,25,13,00,6.00
2012,02,25,13,01,6.10
2012,02,25,13,02,6.00
2012,02,25,13,03,6.00
2012,02,25,13,04,6.00
2012,02,25,13,05,5.90
2012,02,25,13,06,5.80
2012,02,25,13,07,5.80
2012,02,25,13,08,5.70
2012,02,25,13,09,5.70
2012,02,25,13,10,5.70
2012,02,25,13,11,5.80
2012,02,25,13,12,5.80
2012,02,25,13,13,5.80
2012,02,25,13,14,5.80
2012,02,25,13,15,5.80
2012,02,25,13,16,5.80
2012,02,25,13,17,5.80
2012,02,25,13,18,5.80
2012,02,25,13,19,5.80
2012,02,25,13,20,5.80
2012,02,25,13,21,5.80
2012,02,25,13,22,5.70
2012,02,25,13,23,5.70
2012,02,25,13,24,5.60
2012,02,25,13,25,5.70
2012,02,25,13,26,5.70
2012,02,25,13,27,5.70
2012,02,25,13,28,5.70
2012,02,25,13,29,5.70
2012,02,25,13,30,5.60
2012,02,25,13,31,5.60
2012,02,25,13,32,5.60
2012,02,25,13,33,5.60
2012,02,25,13,34,5.50
2012,02,25,13,35,5.50
2012,02,25,13,36,5.40
2012,02,25,13,37,5.40
2012,02,25,13,38,5.40
2012,02,25,13,39,5.40
2012,02,25,13,40,5.40
2012,02,25,13,41,5.30
2012,02,25,13,42,5.30
2012,02,25,13,43,5.30
2012,02,25,13,44,5.30
2012,02,25,13,45,5.30
2012,02,25,13,46,5.30
2012,02,25,13,47,5.30
2012,02,25,13,48,5.30
2012,02,25,13,49,5.30
2012,02,25,13,50,5.30
2012,02,25,13,51,5.30
2012,02,25,13,52,5.30
2012,02,25,13,53,5.30
2012,02,25,13,54,5.30
2012,02,25,13,55,5.30
2012,02,25,13,56,5.30
2012,02,25,13,57,5.30
2012,02,25,13,58,5.30
2012,02,25,13,59,5.30
2012,02,25,14,00,5.30
2012,02,25,14,01,5.30
2012,02,25,14,02,5.30
2012,02,25,14,03,5.30
2012,02,25,14,04,5.20
2012,02,25,14,05,5.20
2012,02,25,14,06,5.20
2012,02,25,14,07,5.20
2012,02,25,14,08,5.20
2012,02,25,14,09,5.20
2012,02,25,14,10,5.20
2012,02,25,14,11,5.20
2012,02,25,14,12,5.30
2012,02,25,14,13,5.30
2012,02,25,14,14,5.30
2012,02,25,14,15,5.30
2012,02,25,14,16,5.30
2012,02,25,14,17,5.40
2012,02,25,14,18,5.50
2012,02,25,14,19,5.50
2012,02,25,14,20,5.60
2012,02,25,14,21,5.60
2012,02,25,14,22,5.70
2012,02,25,14,23,5.70
2012,02,25,14,24,5.70
2012,02,25,14,25,5.70
2012,02,25,14,26,5.70
2012,02,25,14,27,5.70
2012,02,25,14,28,5.70
2012,02,25,14,29,5.60
2012,02,25,14,30,5.60
2012,02,25,14,31,5.60
2012,02,25,14,32,5.60
2012,02,25,14,33,5.60
2012,02,25,14,34,5.60
2012,02,25,14,35,5.60
2012,02,25,14,36,5.60
2012,02,25,14,37,5.60
2012,02,25,14,38,5.60
2012,02,25,14,39,5.50
2012,02,25,14,40,5.50
2012,02,25,14,41,5.50
2012,02,25,14,42,5.50
2012,02,25,14,43,5.50
2012,02,25,14,44,5.50
2012,02,25,14,45,5.50
2012,02,25,14,46,5.50
2012,02,25,14,47,5.50
2012,02,25,14,48,5.60
2012,02,25,14,49,5.60
2012,02,25,14,50,5.60
2012,02,25,14,51,5.60
2012,02,25,14,52,5.60
2012,02,25,14,53,5.60
2012,02,25,14,54,5.60
2012,02,25,14,55,5.70
2012,02,25,14,56,5.70
2012,02,25,14,57,5.70
2012,02,25,14,58,5.70
2012,02,25,14,59,5.70
2012,02,25,15,00,5.70
2012,02,25,15,01,5.70
2012,02,25,15,02,5.70
2012,02,25,15,03,5.70
2012,02,25,15,04,5.70
2012,02,25,15,05,5.70
2012,02,25,15,06,5.80
2012,02,25,15,07,5.80
2012,02,25,15,08,5.80
2012,02,25,15,09,5.80
2012,02,25,15,10,5.80
2012,02,25,15,11,5.90
2012,02,25,15,12,5.80
2012,02,25,15,13,5.80
2012,02,25,15,14,5.80
2012,02,25,15,15,5.80
2012,02,25,15,16,5.80
2012,02,25,15,17,5.80
2012,02,25,15,18,5.80
2012,02,25,15,19,5.80
2012,02,25,15,20,5.80
2012,02,25,15,21,5.80
2012,02,25,15,22,5.80
2012,02,25,15,23,5.80
2012,02,25,15,24,5.80
2012,02,25,15,25,5.80
2012,02,25,15,26,5.70
2012,02,25,15,27,5.70
2012,02,25,15,28,5.70
2012,02,25,15,29,5.70
2012,02,25,15,30,5.70
2012,02,25,15,31,5.70
2012,02,25,15,32,5.70
2012,02,25,15,33,5.70
2012,02,25,15,34,5.80
2012,02,25,15,35,5.80
2012,02,25,15,36,5.90
2012,02,25,15,37,5.90
2012,02,25,15,38,5.90
2012,02,25,15,39,5.90
2012,02,25,15,40,6.00
2012,02,25,15,41,6.00
2012,02,25,15,42,6.00
2012,02,25,15,43,6.00
2012,02,25,15,44,6.10
2012,02,25,15,45,6.10
2012,02,25,15,46,6.20
2012,02,25,15,47,6.20
2012,02,25,15,48,6.30
2012,02,25,15,49,6.30
2012,02,25,15,50,6.30
2012,02,25,15,51,6.30
2012,02,25,15,52,6.30
2012,02,25,15,53,6.20
2012,02,25,15,54,6.20
2012,02,25,15,55,6.20
2012,02,25,15,56,6.20
2012,02,25,15,57,6.20
2012,02,25,15,58,6.20
2012,02,25,15,59,6.20
2012,02,25,16,00,6.20
2012,02,25,16,01,6.20
2012,02,25,16,02,6.20
2012,02,25,16,03,6.20
2012,02,25,16,04,6.10
2012,02,25,16,05,6.10
2012,02,25,16,06,6.00
2012,02,25,16,07,5.90
2012,02,25,16,08,5.90
2012,02,25,16,09,5.80
2012,02,25,16,10,5.70
2012,02,25,16,11,5.70
2012,02,25,16,12,5.60
2012,02,25,16,13,5.60
2012,02,25,16,14,5.50
2012,02,25,16,15,5.50
2012,02,25,16,16,5.40
2012,02,25,16,17,5.40
2012,02,25,16,18,5.40
2012,02,25,16,19,5.40
2012,02,25,16,20,5.40
2012,02,25,16,21,5.30
2012,02,25,16,22,5.30
2012,02,25,16,23,5.30
2012,02,25,16,24,5.30
2012,02,25,16,25,5.30
2012,02,25,16,26,5.30
2012,02,25,16,27,5.30
2012,02,25,16,28,5.30
2012,02,25,16,29,5.30
2012,02,25,16,30,5.30
2012,02,25,16,31,5.30
2012,02,25,16,32,5.30
2012,02,25,16,33,5.30
2012,02,25,16,34,5.30
2012,02,25,16,35,5.30
2012,02,25,16,36,5.20
2012,02,25,16,37,5.20
2012,02,25,16,38,5.20
2012,02,25,16,39,5.20
2012,02,25,16,40,5.20
2012,02,25,16,41,5.20
2012,02,25,16,42,5.20
2012,02,25,16,43,5.20
2012,02,25,16,44,5.20
2012,02,25,16,45,5.20
2012,02,25,16,46,5.30
2012,02,25,16,47,5.30
2012,02,25,16,48,5.30
2012,02,25,16,49,5.30
2012,02,25,16,50,5.30
2012,02,25,16,51,5.30
2012,02,25,16,52,5.30
2012,02,25,16,53,5.30
2012,02,25,16,54,5.30
2012,02,25,16,55,5.30
2012,02,25,16,56,5.30
2012,02,25,16,57,5.30
2012,02,25,16,58,5.30
2012,02,25,16,59,5.20
2012,02,25,17,00,5.20
2012,02,25,17,01,5.20
2012,02,25,17,02,5.20
2012,02,25,17,03,5.30
2012,02,25,17,04,5.30
2012,02,25,17,05,5.30
2012,02,25,17,06,5.30
2012,02,25,17,07,5.30
2012,02,25,17,08,5.30
2012,02,25,17,09,5.30
2012,02,25,17,10,5.30
2012,02,25,17,11,5.30
2012,02,25,17,12,5.30
2012,02,25,17,13,5.30
2012,02,25,17,14,5.30
2012,02,25,17,15,5.30
2012,02,25,17,16,5.20
2012,02,25,17,17,5.20
2012,02,25,17,18,5.20
2012,02,25,17,19,5.10
2012,02,25,17,20,5.10
2012,02,25,17,21,5.10
2012,02,25,17,22,5.00
2012,02,25,17,23,5.00
2012,02,25,17,24,4.90
2012,02,25,17,25,4.90
2012,02,25,17,26,4.90
2012,02,25,17,27,4.80
2012,02,25,17,28,4.80
2012,02,25,17,29,4.80
2012,02,25,17,30,4.80
2012,02,25,17,31,4.70
2012,02,25,17,32,4.70
2012,02,25,17,33,4.70
2012,02,25,17,34,4.70
2012,02,25,17,35,4.70
2012,02,25,17,36,4.70
2012,02,25,17,37,4.60
2012,02,25,17,38,4.60
2012,02,25,17,39,4.60
2012,02,25,17,40,4.60
2012,02,25,17,41,4.60
2012,02,25,17,42,4.60
2012,02,25,17,43,4.50
2012,02,25,17,44,4.50
2012,02,25,17,45,4.50
2012,02,25,17,46,4.50
2012,02,25,17,47,4.40
2012,02,25,17,48,4.40
2012,02,25,17,49,4.40
2012,02,25,17,50,4.40
2012,02,25,17,51,4.40
2012,02,25,17,52,4.30
2012,02,25,17,53,4.30
2012,02,25,17,54,4.30
2012,02,25,17,55,4.30
2012,02,25,17,56,4.40
2012,02,25,17,57,4.40
2012,02,25,17,58,4.40
2012,02,25,17,59,4.40
2012,02,25,18,00,4.40
2012,02,25,18,01,4.40
2012,02,25,18,02,4.40
2012,02,25,18,03,4.40
2012,02,25,18,04,4.30
2012,02,25,18,05,4.30
2012,02,25,18,06,4.30
2012,02,25,18,07,4.30
2012,02,25,18,08,4.30
2012,02,25,18,09,4.30
2012,02,25,18,10,4.30
2012,02,25,18,11,4.30
2012,02,25,18,12,4.30
2012,02,25,18,13,4.30
2012,02,25,18,14,4.30
2012,02,25,18,15,4.30
2012,02,25,18,16,4.20
2012,02,25,18,17,4.20
2012,02,25,18,18,4.20
2012,02,25,18,19,4.20
2012,02,25,18,20,4.20
2012,02,25,18,21,4.20
2012,02,25,18,22,4.20
2012,02,25,18,23,4.10
2012,02,25,18,24,4.10
2012,02,25,18,25,4.10
2012,02,25,18,26,4.10
2012,02,25,18,27,4.10
2012,02,25,18,28,4.10
2012,02,25,18,29,4.10
2012,02,25,18,30,4.10
2012,02,25,18,31,4.10
2012,02,25,18,32,4.10
2012,02,25,18,33,4.10
2012,02,25,18,34,4.10
2012,02,25,18,35,4.10
2012,02,25,18,36,4.10
2012,02,25,18,37,4.10
2012,02,25,18,38,4.10
2012,02,25,18,39,4.10
2012,02,25,18,40,4.10
2012,02,25,18,41,4.10
2012,02,25,18,42,4.10
2012,02,25,18,43,4.10
2012,02,25,18,44,4.10
2012,02,25,18,45,4.10
2012,02,25,18,46,4.10
2012,02,25,18,47,4.10
2012,02,25,18,48,4.10
2012,02,25,18,49,4.10
2012,02,25,18,50,4.10
2012,02,25,18,51,4.10
2012,02,25,18,52,4.10
2012,02,25,18,53,4.10
2012,02,25,18,54,4.10
2012,02,25,18,55,4.10
2012,02,25,18,56,4.10
2012,02,25,18,57,4.10
2012,02,25,18,58,4.10
2012,02,25,18,59,4.10
2012,02,25,19,00,4.10
2012,02,25,19,01,4.10
2012,02,25,19,02,4.10
2012,02,25,19,03,4.10
2012,02,25,19,04,4.00
2012,02,25,19,05,4.00
2012,02,25,19,06,4.00
2012,02,25,19,07,4.00
2012,02,25,19,08,3.90
2012,02,25,19,09,3.90
2012,02,25,19,10,3.90
2012,02,25,19,11,3.90
2012,02,25,19,12,3.90
2012,02,25,19,13,3.90
2012,02,25,19,14,3.90
2012,02,25,19,15,3.80
2012,02,25,19,16,3.80
2012,02,25,19,17,3.80
2012,02,25,19,18,3.80
2012,02,25,19,19,3.80
2012,02,25,19,20,3.70
2012,02,25,19,21,3.70
2012,02,25,19,22,3.70
2012,02,25,19,23,3.70
2012,02,25,19,24,3.70
2012,02,25,19,25,3.60
2012,02,25,19,26,3.60
2012,02,25,19,27,3.60
2012,02,25,19,28,3.60
2012,02,25,19,29,3.60
2012,02,25,19,30,3.60
2012,02,25,19,31,3.60
2012,02,25,19,32,3.60
2012,02,25,19,33,3.60
2012,02,25,19,34,3.60
2012,02,25,19,35,3.60
2012,02,25,19,36,3.60
2012,02,25,19,37,3.50
2012,02,25,19,38,3.50
2012,02,25,19,39,3.50
2012,02,25,19,40,3.50
2012,02,25,19,41,3.50
2012,02,25,19,42,3.50
2012,02,25,19,43,3.50
2012,02,25,19,44,3.40
2012,02,25,19,45,3.40
2012,02,25,19,46,3.40
2012,02,25,19,47,3.40
2012,02,25,19,48,3.40
2012,02,25,19,49,3.30
2012,02,25,19,50,3.30
2012,02,25,19,51,3.30
2012,02,25,19,52,3.30
2012,02,25,19,53,3.30
2012,02,25,19,54,3.30
2012,02,25,19,55,3.30
2012,02,25,19,56,3.30
2012,02,25,19,57,3.30
2012,02,25,19,58,3.30
2012,02,25,19,59,3.30
2012,02,25,20,00,3.30
2012,02,25,20,01,3.30
2012,02,25,20,02,3.30
2012,02,25,20,03,3.30
2012,02,25,20,04,3.20
2012,02,25,20,05,3.20
2012,02,25,20,06,3.20
2012,02,25,20,07,3.20
2012,02,25,20,08,3.30
2012,02,25,20,09,3.30
2012,02,25,20,10,3.30
2012,02,25,20,11,3.30
2012,02,25,20,12,3.20
2012,02,25,20,13,3.20
2012,02,25,20,14,3.20
2012,02,25,20,15,3.20
2012,02,25,20,16,3.10
2012,02,25,20,17,3.10
2012,02,25,20,18,3.10
2012,02,25,20,19,3.10
2012,02,25,20,20,3.10
2012,02,25,20,21,3.10
2012,02,25,20,22,3.10
2012,02,25,20,23,3.10
2012,02,25,20,24,3.10
2012,02,25,20,25,3.10
2012,02,25,20,26,3.10
2012,02,25,20,27,3.10
2012,02,25,20,28,3.10
2012,02,25,20,29,3.10
2012,02,25,20,30,3.00
2012,02,25,20,31,3.00
2012,02,25,20,32,2.90
2012,02,25,20,33,2.90
2012,02,25,20,34,2.90
2012,02,25,20,35,2.90
2012,02,25,20,36,2.90
2012,02,25,20,37,2.90
2012,02,25,20,38,2.90
2012,02,25,20,39,2.90
2012,02,25,20,40,2.80
2012,02,25,20,41,2.80
2012,02,25,20,42,2.80
2012,02,25,20,43,2.80
2012,02,25,20,44,2.80
2012,02,25,20,45,2.80
2012,02,25,20,46,2.80
2012,02,25,20,47,2.80
2012,02,25,20,48,2.80
2012,02,25,20,49,2.80
2012,02,25,20,50,2.80
2012,02,25,20,51,2.90
2012,02,25,20,52,2.90
2012,02,25,20,53,2.90
2012,02,25,20,54,2.90
2012,02,25,20,55,2.80
2012,02,25,20,56,2.80
2012,02,25,20,57,2.80
2012,02,25,20,58,2.80
2012,02,25,20,59,2.80
2012,02,25,21,00,2.80
2012,02,25,21,01,2.70
2012,02,25,21,02,2.70
2012,02,25,21,03,2.70
2012,02,25,21,04,2.60
2012,02,25,21,05,2.60
2012,02,25,21,06,2.60
2012,02,25,21,07,2.60
2012,02,25,21,08,2.60
2012,02,25,21,09,2.50
2012,02,25,21,10,2.50
2012,02,25,21,11,2.40
2012,02,25,21,12,2.30
2012,02,25,21,13,2.30
2012,02,25,21,14,2.30
2012,02,25,21,15,2.30
2012,02,25,21,16,2.30
2012,02,25,21,17,2.30
2012,02,25,21,18,2.30
2012,02,25,21,19,2.40
2012,02,25,21,20,2.40
2012,02,25,21,21,2.50
2012,02,25,21,22,2.50
2012,02,25,21,23,2.50
2012,02,25,21,24,2.60
2012,02,25,21,25,2.60
2012,02,25,21,26,2.60
2012,02,25,21,27,2.60
2012,02,25,21,28,2.50
2012,02,25,21,29,2.50
2012,02,25,21,30,2.50
2012,02,25,21,31,2.50
2012,02,25,21,32,2.50
2012,02,25,21,33,2.50
2012,02,25,21,34,2.50
2012,02,25,21,35,2.50
2012,02,25,21,36,2.50
2012,02,25,21,37,2.60
2012,02,25,21,38,2.60
2012,02,25,21,39,2.60
2012,02,25,21,40,2.60
2012,02,25,21,41,2.60
2012,02,25,21,42,2.60
2012,02,25,21,43,2.60
2012,02,25,21,44,2.60
2012,02,25,21,45,2.50
2012,02,25,21,46,2.50
2012,02,25,21,47,2.50
2012,02,25,21,48,2.50
2012,02,25,21,49,2.40
2012,02,25,21,50,2.40
2012,02,25,21,51,2.40
2012,02,25,21,52,2.40
2012,02,25,21,53,2.40
2012,02,25,21,54,2.40
2012,02,25,21,55,2.40
2012,02,25,21,56,2.40
2012,02,25,21,57,2.40
2012,02,25,21,58,2.40
